CW9863 Weather Reports


time (UTC)temp
F
wind
direction
speed
knots
gust
knots
rain 1hr
in
rain 24hr
in
rain mn
in
humidity
%
barometer
mb
20260510213038 86 250 2.6 0.0 0.00 0.00 0.00 74 1014.0
20260510211543 86 295 3.5 0.0 0.00 0.00 0.00 74 1014.1
20260510210037 85 258 4.3 0.0 0.00 0.00 0.00 75 1014.2
20260510204538 85 263 5.2 0.0 0.00 0.00 0.00 75 1014.2
20260510203035 87 284 3.5 0.0 0.00 0.00 0.00 73 1014.2
20260510201539 87 264 4.3 0.0 0.00 0.00 0.00 72 1014.2
20260510200034 87 130 4.3 0.0 0.00 0.00 0.00 73 1014.2
20260510194542 87 278 5.2 0.0 0.00 0.00 0.00 73 1014.2
20260510193040 87 102 5.2 0.0 0.00 0.00 0.00 71 1014.2
20260510191534 89 142 3.5 0.0 0.00 0.00 0.00 69 1014.3
20260510190048 89 245 3.5 0.0 0.00 0.00 0.00 68 1014.3
20260510184533 89 273 4.3 0.0 0.00 0.00 0.00 69 1014.3
20260510183131 88 230 4.3 0.0 0.00 0.00 0.00 71 1014.3
20260510181530 90 181 5.2 0.0 0.00 0.00 0.00 69 1014.6
20260510180038 90 196 5.2 0.0 0.00 0.00 0.00 69 1014.7
20260510174530 89 148 4.3 0.0 0.00 0.00 0.00 70 1014.7
20260510173029 91 285 5.2 0.0 0.00 0.00 0.00 65 1014.7
20260510171529 90 292 5.2 0.0 0.00 0.00 0.00 68 1014.8
20260510170027 91 296 5.2 0.0 0.00 0.00 0.00 67 1014.8
20260510164526 91 311 5.2 0.0 0.00 0.00 0.00 66 1014.8
20260510163036 92 262 3.5 0.0 0.00 0.00 0.00 65 1014.8
20260510161523 93 286 2.6 0.0 0.00 0.00 0.00 62 1014.8
20260510160020 91 121 4.3 0.0 0.00 0.00 0.00 68 1014.9
20260510154518 91 178 2.6 0.0 0.00 0.00 0.00 65 1014.9
20260510153015 91 130 2.6 0.0 0.00 0.00 0.00 61 1014.8
20260510151513 91 138 3.5 0.0 0.00 0.00 0.00 63 1014.8
20260510150010 90 209 3.5 0.0 0.00 0.00 0.00 64 1014.8
20260510144508 89 157 2.6 0.0 0.00 0.00 0.00 64 1014.7
20260510143003 88 160 2.6 0.0 0.00 0.00 0.00 70 1014.8
20260510141602 87 117 3.5 0.0 0.00 0.00 0.00 71 1014.8
20260510140057 86 199 2.6 0.0 0.00 0.00 0.00 72 1014.8
20260510134557 85 111 1.7 0.0 0.00 0.00 0.00 74 1014.7
20260510133049 84 236 1.7 0.0 0.00 0.00 0.00 78 1014.6
20260510131553 82 111 1.7 0.0 0.00 0.00 0.00 81 1014.4
20260510130040 79 76 2.6 0.0 0.00 0.00 0.00 84 1014.3
20260510124536 77 134 1.7 0.0 0.00 0.00 0.00 88 1014.3
20260510123032 76 315 0.9 0.0 0.00 0.00 0.00 92 1014.3
20260510121530 74 169 0.9 0.0 0.00 0.00 0.00 94 1014.2
20260510120028 73 83 0.9 0.0 0.00 0.00 0.00 94 1013.8
20260510114529 73 196 0.0 0.0 0.00 0.00 0.00 94 1013.7
20260510113022 72 76 0.9 0.0 0.00 0.00 0.00 94 1013.4
20260510111519 72 184 0.0 0.0 0.00 0.00 0.00 93 1013.3
20260510110026 72 355 0.0 0.0 0.00 0.00 0.00 93 1013.2
20260510104515 72 321 0.0 0.0 0.00 0.00 0.00 93 1012.8
20260510103017 72 321 0.0 0.0 0.00 0.00 0.00 92 1012.9
20260510101513 72 29 0.0 0.0 0.00 0.00 0.00 92 1012.6
20260510100027 72 29 0.0 0.0 0.00 0.00 0.00 92 1012.2
20260510094514 73 29 0.0 0.0 0.00 0.00 0.00 91 1012.2
20260510093009 73 29 0.0 0.0 0.00 0.00 0.00 92 1012.2
20260510091508 73 30 0.0 0.0 0.00 0.00 0.00 92 1011.7
20260510090010 74 55 0.0 0.0 0.00 0.00 0.00 91 1011.6
20260510084506 74 113 0.0 0.0 0.00 0.00 0.00 92 1011.4
20260510083017 74 170 0.9 0.0 0.00 0.00 0.00 92 1011.2
20260510081505 74 77 0.9 0.0 0.00 0.00 0.00 92 1011.5
20260510080012 74 132 0.9 0.0 0.00 0.00 0.00 92 1011.5
20260510074502 75 98 0.9 0.0 0.00 0.00 0.00 91 1011.6
20260510073106 75 130 0.0 0.0 0.00 0.00 0.00 91 1011.6
20260510073001 75 130 0.0 0.0 0.00 0.00 0.00 91 1011.6
20260510071600 75 42 0.0 0.0 0.00 0.00 0.00 91 1011.8
20260510070058 75 42 0.0 0.0 0.00 0.00 0.00 91 1011.9
20260510064556 76 42 0.0 0.0 0.00 0.00 0.00 91 1012.2
20260510063056 76 311 0.0 0.0 0.00 0.00 0.00 91 1012.3
20260510061556 76 72 0.0 0.0 0.00 0.00 0.00 91 1012.2
20260510060055 76 96 0.0 0.0 0.00 0.00 0.00 92 1012.6
20260510054555 76 96 0.0 0.0 0.00 0.00 0.00 92 1012.8
20260510053052 76 91 0.0 0.0 0.00 0.00 0.00 92 1013.0
20260510051552 76 91 0.0 0.0 0.00 0.00 0.00 92 1013.2
20260510050052 76 91 0.0 0.0 0.00 0.00 0.00 92 1013.2
20260510044557 76 107 0.0 0.0 0.00 0.00 0.00 92 1013.2
20260510043103 76 107 0.0 0.0 0.00 0.00 0.00 92 1013.3
20260510041549 76 279 0.0 0.0 0.00 0.00 0.00 92 1013.4
20260510040056 76 279 0.0 0.0 0.00 0.00 0.00 91 1013.3
20260510034548 76 279 0.0 0.0 0.00 0.00 0.00 91 1013.3
20260510033101 76 279 0.0 0.0 0.00 0.00 0.00 91 1013.2
20260510031553 76 279 0.0 0.0 0.00 0.00 0.00 90 1013.2
20260510030048 77 279 0.0 0.0 0.00 0.00 0.00 90 1013.0
20260510024545 77 279 0.0 0.0 0.00 0.00 0.00 90 1012.7
20260510023043 77 279 0.0 0.0 0.00 0.00 0.00 89 1012.7
20260510021544 77 279 0.0 0.0 0.00 0.00 0.00 89 1012.8
20260510020047 77 279 0.0 0.0 0.00 0.00 0.00 88 1012.9
20260510014547 78 279 0.0 0.0 0.00 0.00 0.00 86 1012.7
20260510013042 78 279 0.0 0.0 0.00 0.00 0.00 86 1012.6
20260510011544 78 279 0.0 0.0 0.00 0.00 0.00 85 1012.2
20260510010040 79 305 0.0 0.0 0.00 0.00 0.00 85 1012.2
20260510004540 79 305 0.9 0.0 0.00 0.00 0.00 84 1012.0
20260510003040 79 246 0.9 0.0 0.00 0.00 0.00 83 1012.1
20260510001543 79 259 0.9 0.0 0.00 0.00 0.00 81 1011.8
20260510000058 80 266 2.6 0.0 0.00 0.00 0.00 81 1011.7
20260509234549 82 257 1.7 0.0 0.00 0.00 0.00 78 1011.3
20260509233045 82 244 1.7 0.0 0.00 0.00 0.00 73 1011.5
20260509231538 83 285 2.6 0.0 0.00 0.00 0.00 71 1011.2
20260509230038 83 258 2.6 0.0 0.00 0.00 0.00 69 1011.1
20260509224537 84 157 2.6 0.0 0.00 0.00 0.00 67 1011.0
20260509223039 85 252 1.7 0.0 0.00 0.00 0.00 64 1011.0
20260509221537 86 119 3.5 0.0 0.00 0.00 0.00 61 1010.6
20260509220036 87 260 4.3 0.0 0.00 0.00 0.00 57 1010.6
20260509214535 88 263 2.6 0.0 0.00 0.00 0.00 53 1010.5